Back to catalog

ONEWEB-0034

AliveCommunicationsPO
NORAD 45454·PAYLOAD·🇬🇧 United Kingdom

Launched Mar 21, 2020 from Baikonur Cosmodrome

Loading…

Next Passes (next 24 hours)

TLE

FreshSource: CelesTrak SupGP

Epoch: Sep 14, 2026, 23:09 UTC

1 45454C 20020AG  26257.96473796 -.00002845  00000+0 -80367-2 0  2572
2 45454  87.8980   3.2266 0001826 103.5930 358.8837 13.11419203    19

Track ONEWEB-0034 in real time with AllMySat

Download on the App Store